Flag Weather past 2 weeks in Hemer, North Rhine-Westphalia, Germany

Now
36 °F

Clear.


Feels Like: 32 °F
Forecast: 46 / 55 °F
Wind: 5 mph from East

Location: Dortmund / Wickede

Current Time: Nov 22, 2014 at 6:29:17 AM

Latest Report: Nov 22, 2014 at 5:50 AM


Visibility: 10 mi

Pressure: 30.09 "Hg

Humidity: 93%

Dew point: 34 °F

Location of HemerLocation

Historic Weather in Hemer — Graph

°F

Hemer temperature yesterday

Maximum temperature yesterday: 46 °F (at 1:20 PM)
Minimum temperature yesterday: 32 °F (at 5:20 AM)
Average temperature yesterday: 39 °F

Past Weeks' High & Low Weather Summary

 TemperatureHumidityPressure
High57 °F (Nov 9, 1:20 PM)93% (Nov 11, 7:50 AM)30.33 "Hg (Nov 11, 7:50 AM)
Low32 °F (Nov 21, 5:20 AM)51% (Nov 9, 2:20 PM)29.50 "Hg (Nov 16, 12:50 PM)
Average47 °F80%29.83 "Hg
* Reported Nov 7 5:20 AM — Nov 22 5:20 AM, Hemer, Weather by CustomWeather, © 2014

Note: Actual official high and low records may vary slightly from our data, if they occured in-between our weather recording intervals... More about our weather records

Advertising

Hemer weather history for previous 24 hours

 ConditionsComfort  
Time TempWeatherWind HumidityBarometerVisibility
5:20 AM
Nov 22
36 °FClear.6 mph93%30.09 "Hg10 mi
10:50 PM
Nov 21
34 °FClear.5 mph87%30.12 "Hg10 mi
10:20 PM36 °FClear.6 mph87%30.12 "Hg10 mi
9:50 PM36 °FClear.8 mph87%30.15 "Hg10 mi
9:20 PM37 °FClear.6 mph81%30.15 "Hg10 mi
8:50 PM37 °FClear.7 mph87%30.15 "Hg10 mi
8:20 PM37 °FClear.8 mph81%30.15 "Hg10 mi
7:50 PM37 °FClear.7 mph81%30.15 "Hg10 mi
7:20 PM39 °FClear.7 mph81%30.15 "Hg10 mi
6:50 PM39 °FClear.8 mph81%30.15 "Hg10 mi
6:20 PM39 °FClear.7 mph81%30.15 "Hg10 mi
5:50 PM41 °FClear.8 mph81%30.15 "Hg10 mi
5:20 PM41 °FClear.7 mph81%30.15 "Hg10 mi
4:20 PM43 °FPassing clouds.7 mph76%30.15 "HgN/A
3:50 PM45 °FSunny.8 mph71%30.15 "Hg10 mi
3:20 PM45 °FSunny.10 mph76%30.15 "Hg10 mi
2:50 PM46 °FSunny.10 mph71%30.15 "Hg10 mi
2:20 PM46 °FPassing clouds.8 mph71%30.18 "HgN/A
1:50 PM46 °FPassing clouds.8 mph71%30.18 "HgN/A
1:20 PM46 °FPassing clouds.8 mph71%30.18 "HgN/A
12:50 PM45 °FSunny.8 mph71%30.21 "Hg10 mi
12:20 PM45 °FPassing clouds.6 mph71%30.21 "HgN/A
11:50 AM43 °FPassing clouds.6 mph76%30.21 "HgN/A
11:20 AM41 °FSunny.6 mph81%30.24 "Hg10 mi
10:50 AM41 °FSunny.3 mph81%30.24 "Hg10 mi
10:20 AM39 °FSunny.6 mph81%30.24 "Hg10 mi
9:50 AM37 °FPassing clouds.5 mph81%30.24 "HgN/A
9:20 AM36 °FSunny.6 mph87%30.24 "Hg10 mi
8:50 AM34 °FClear.5 mph93%30.24 "Hg6 mi
8:20 AM32 °FClear.5 mph93%30.24 "Hg4 mi
7:50 AM32 °FClear.2 mph93%30.24 "Hg4 mi
7:20 AM32 °FClear.3 mph93%30.24 "Hg10 mi
6:50 AM32 °FClear.3 mph93%30.24 "Hg10 mi
6:20 AM34 °FClear.6 mph87%30.24 "Hg10 mi
Weather by CustomWeather, © 2014

See weather overviewHow to use our weather pages